Location: Laan Hart van Zuid
(52.2563°N, 6.7904°E)
Time: 10:21:06
(UTC+02:00)

ISS - Pass Details

Date: 19 May 2024
Orbit: 411 x 419 km, 51.6° (Epoch: 29 May)

Event Time Altitude Azimuth Distance (km) Brightness Sun altitude
Rises 22:27:01 0° 273° (W) 2,373 0.8 -7.6°
Reaches altitude 10° 22:29:08 10° 272° (W) 1,507 -0.2 -7.8°
Maximum altitude 22:32:30 79° 187° (S) 432 -3.8 -8.1°
Drops below altitude 10° 22:35:52 10° 100° (E) 1,499 -1.4 -8.5°
Enters shadow 22:36:34 - 99° (E) 1,783 -1.0 -8.5°
